TimeMST,TemperatureF,Dew PointF,Humidity,Sea Level PressureIn,VisibilityMPH,Wind Direction,Wind SpeedMPH,Gust SpeedMPH,PrecipitationIn,Events,Conditions,WindDirDegrees,DateUTC
12:53 AM,12.9,9.0,84,30.04,10.0,Calm,Calm,-,N/A,,Clear,0,2012-12-23 07:53:00
1:53 AM,12.9,9.0,84,30.02,10.0,Calm,Calm,-,N/A,,Clear,0,2012-12-23 08:53:00
2:53 AM,12.0,9.0,88,30.01,10.0,Calm,Calm,-,N/A,,Clear,0,2012-12-23 09:53:00
3:53 AM,9.0,6.1,88,30.02,10.0,WSW,3.5,-,N/A,,Clear,250,2012-12-23 10:53:00
4:53 AM,5.0,3.0,92,30.02,10.0,Calm,Calm,-,N/A,,Clear,0,2012-12-23 11:53:00
5:53 AM,9.0,5.0,84,30.02,10.0,Calm,Calm,-,N/A,,Clear,0,2012-12-23 12:53:00
6:53 AM,9.0,6.1,88,30.04,10.0,Calm,Calm,-,N/A,,Clear,0,2012-12-23 13:53:00
7:53 AM,9.0,6.1,88,30.03,10.0,WSW,3.5,-,N/A,,Clear,250,2012-12-23 14:53:00
8:53 AM,16.0,12.0,84,30.04,10.0,WNW,5.8,-,N/A,,Clear,300,2012-12-23 15:53:00
9:53 AM,19.9,15.1,81,30.05,10.0,East,5.8,-,N/A,,Clear,80,2012-12-23 16:53:00
10:53 AM,21.9,17.1,82,30.04,10.0,South,5.8,-,N/A,,Clear,170,2012-12-23 17:53:00
11:53 AM,26.1,19.0,75,30.02,10.0,SSW,6.9,-,N/A,,Clear,210,2012-12-23 18:53:00
12:53 PM,28.9,19.9,69,30.00,10.0,Calm,Calm,-,N/A,,Clear,0,2012-12-23 19:53:00
1:53 PM,30.9,21.9,69,30.00,10.0,SSW,5.8,-,N/A,,Clear,210,2012-12-23 20:53:00
2:53 PM,32.0,23.0,69,30.00,10.0,Calm,Calm,-,N/A,,Clear,0,2012-12-23 21:53:00
3:53 PM,32.0,23.0,69,30.00,10.0,SE,3.5,-,N/A,,Clear,130,2012-12-23 22:53:00
4:53 PM,24.1,19.0,81,30.05,10.0,SE,4.6,-,N/A,,Clear,130,2012-12-23 23:53:00
5:53 PM,21.9,18.0,85,30.06,10.0,WNW,4.6,-,N/A,,Clear,300,2012-12-24 00:53:00
6:53 PM,28.9,18.0,64,30.07,10.0,North,3.5,-,N/A,,Clear,10,2012-12-24 01:53:00
7:53 PM,21.0,16.0,81,30.11,10.0,ENE,4.6,-,N/A,,Clear,70,2012-12-24 02:53:00
8:53 PM,19.0,16.0,88,30.13,10.0,ENE,5.8,-,N/A,,Clear,60,2012-12-24 03:53:00
9:53 PM,19.9,16.0,85,30.11,10.0,ENE,6.9,-,N/A,,Clear,60,2012-12-24 04:53:00
10:53 PM,17.1,14.0,88,30.12,10.0,Calm,Calm,-,N/A,,Clear,0,2012-12-24 05:53:00
11:53 PM,16.0,12.0,84,30.10,10.0,Calm,Calm,-,N/A,,Clear,0,2012-12-24 06:53:00